Hourly Data Report for October 05, 2017

All times are specified in Local Standard Time (LST). Add 1 hour to adjust for Daylight Saving Time where and when it is observed.

GJOA HAVEN A
NUNAVUT

68°38'08.000" N
95°51'01.000" W
46.90 m
2302337
71597
YHK

Related Data

No related data is available for this station

Download Data

Hourly Data (October 2017)
Hourly Data Report for October 5, 2017
Temp Definition
°C
Dew Point Temp Definition
°C
Rel Hum Definition
%
Wind Dir Definition
10's deg

Wind Spd Definition
km/h
Visibility Definition
km
Stn Press Definition
kPa
Hmdx Definition


Wind Chill Definition


Weather Definition


TIME
00:00 Legend Double Dagger -4.3 -4.7 97 34 54 1.6 98.69   -14 Snow
01:00 Legend Double Dagger -3.4 -3.7 98 34 52 2.0 98.72   -13 Snow
02:00 Legend Double Dagger -3.2 -3.5 98 34 48 1.6 98.75   -12 Snow
03:00 Legend Double Dagger -3.1 -3.4 98 35 48 2.0 98.82   -12 Snow
04:00 Legend Double Dagger -2.9 -3.2 98 35 46 2.4 98.86   -12 Snow
05:00 Legend Double Dagger -2.5 -2.8 98 36 41 3.2 98.90   -11 Snow
06:00 Legend Double Dagger -2.1 -2.4 98 36 43 2.0 98.96   -10 Snow
07:00 Legend Double Dagger -2.6 -3.6 93 6 18 16.1 99.07   -8 Snow
08:00 Legend Double Dagger -2.3 -4.3 86 5 28 16.1 99.12   -9 Snow
09:00 Legend Double Dagger -2.7 -5.5 81 LegendMM LegendMM LegendMM 99.20     LegendNANA
10:00 Legend Double Dagger -2.8 -6.0 79 4 34 16.1 99.26   -11 Snow
11:00 Legend Double Dagger -2.6 -6.0 78 4 30 16.1 99.33   -10 LegendNANA
12:00 Legend Double Dagger -2.7 -5.3 82 5 30 16.1 99.37   -10 LegendNANA
13:00 Legend Double Dagger -3.0 -5.2 85 5 30 16.1 99.42   -10 LegendNANA
14:00 Legend Double Dagger -2.9 -4.9 86 5 34 16.1 99.49   -11 LegendNANA
15:00 Legend Double Dagger -2.7 -5.3 82 5 32 16.1 99.56   -10 LegendNANA
16:00 Legend Double Dagger -3.0 -5.1 86 5 28 16.1 99.63   -10 LegendNANA
17:00 Legend Double Dagger -3.1 -5.1 86 3 21 16.1 99.67   -9 LegendNANA
18:00 Legend Double Dagger -3.1 -5.4 85 6 32 16.1 99.67   -11 LegendNANA
19:00 Legend Double Dagger -3.1 -5.0 87 4 26 16.1 99.68   -10 LegendNANA
20:00 Legend Double Dagger -3.4 -5.3 87 5 28 16.1 99.68   -11 LegendNANA
21:00 Legend Double Dagger -3.6 -5.5 87 6 26 16.1 99.70   -11 LegendNANA
22:00 Legend Double Dagger -3.6 -5.6 86 3 28 16.1 99.69   -11 LegendNANA
23:00 Legend Double Dagger -3.5 -5.7 85 3 26 16.1 99.69   -11 LegendNANA

Notes on Data Quality.

Legend

  • E = Estimated
  • M = Missing
  • NA = Not Available
  • ‡ = Partner data that is not subject to review by the National Climate Archives
Date modified: